Flag for Russia Weather past 2 weeks in Novorossiysk, Russia

Now
72 °F

Sunny.


Feels Like: 77 °F
Forecast: 58 / 87 °F
Wind: 10 mph from Northeast

Location: Anapa / Vitiazevo

Current Time: Aug 30, 2014 at 8:21:27 PM

Latest Report: Aug 30, 2014 at 8:00 PM


Visibility: 10 mi

Pressure: 30.07 "Hg

Humidity: 44%

Dew point: 48 °F

Location of NovorossiyskLocation

Historic Weather in Novorossiysk — Graph

°F

Novorossiysk temperature yesterday

Maximum temperature yesterday: 77 °F (at 3:00 PM)
Minimum temperature yesterday: 55 °F (at 11:00 PM)
Average temperature yesterday: 69 °F

Past Weeks' High & Low Weather Summary

 TemperatureHumidityPressure
High90 °F (Aug 18, 2:00 PM)94% (Aug 15, 10:30 PM)30.12 "Hg (Aug 15, 10:30 PM)
Low52 °F (Aug 30, 2:00 AM)22% (Aug 25, 3:30 PM)29.50 "Hg (Aug 18, 6:30 AM)
Average76 °F60%29.89 "Hg
* Reported Aug 15 7:00 PM — Aug 30 7:00 PM, Novorossiysk, Weather by CustomWeather, © 2014

Note: Actual official high and low records may vary slightly from our data, if they occured in-between our weather recording intervals... More about our weather records

Advertising

Novorossiysk weather history for previous 24 hours

 ConditionsComfort  
Time TempWeatherWind HumidityBarometerVisibility
7:00 PM
Aug 30
75 °FSunny.15 mph31%30.07 "Hg10 mi
6:30 PM75 °FSunny.17 mph31%30.09 "Hg10 mi
6:00 PM77 °FSunny.15 mph30%30.07 "Hg10 mi
5:30 PM77 °FSunny.15 mph32%30.09 "Hg10 mi
5:00 PM79 °FSunny.13 mph30%30.09 "Hg10 mi
4:30 PM79 °FSunny.15 mph30%30.09 "Hg10 mi
4:00 PM79 °FSunny.15 mph30%30.09 "Hg10 mi
3:30 PM79 °FSunny.13 mph28%30.09 "Hg10 mi
3:00 PM81 °FSunny.15 mph26%30.09 "Hg10 mi
2:30 PM81 °FSunny.13 mph26%30.09 "Hg10 mi
2:00 PM79 °FSunny.15 mph28%30.09 "Hg10 mi
1:30 PM79 °FPassing clouds.13 mph28%30.09 "HgN/A
1:00 PM79 °FPassing clouds.13 mph28%30.12 "HgN/A
12:30 PM77 °FSunny.15 mph28%30.12 "Hg10 mi
12:00 PM77 °FPassing clouds.15 mph32%30.12 "HgN/A
11:30 AM77 °FPassing clouds.15 mph30%30.12 "HgN/A
11:00 AM75 °FPassing clouds.13 mph31%30.12 "HgN/A
10:30 AM75 °FPassing clouds.13 mph34%30.12 "HgN/A
10:00 AM73 °FSunny.10 mph41%30.12 "Hg10 mi
9:30 AM72 °FPassing clouds.10 mph44%30.12 "HgN/A
9:00 AM70 °FSunny.13 mph50%30.12 "Hg10 mi
8:30 AM68 °FSunny.8 mph53%30.12 "Hg10 mi
8:00 AM64 °FSunny.6 mph60%30.12 "Hg10 mi
7:30 AM55 °FClear.3 mph77%30.12 "Hg10 mi
7:00 AM55 °FClear.3 mph72%30.09 "Hg10 mi
6:30 AM54 °FClear.6 mph72%30.09 "Hg10 mi
6:00 AM52 °FClear.3 mph77%30.09 "Hg10 mi
5:00 AM54 °FClear.3 mph72%30.09 "Hg10 mi
4:00 AM54 °FClear.3 mph77%30.09 "Hg10 mi
3:00 AM52 °FClear.3 mph82%30.09 "Hg10 mi
2:00 AM52 °FClear.3 mph82%30.09 "Hg10 mi
1:00 AM55 °FClear.3 mph77%30.07 "Hg10 mi
11:00 PM
Aug 29
55 °FClear.3 mph72%30.07 "Hg10 mi
10:30 PM59 °FClear.3 mph72%30.07 "Hg10 mi
10:00 PM59 °FClear.3 mph72%30.07 "Hg10 mi
9:30 PM63 °FClear.3 mph68%30.07 "Hg10 mi
9:00 PM66 °FSunny.6 mph60%30.07 "Hg10 mi
8:30 PM66 °FSunny.6 mph60%30.04 "Hg10 mi
8:00 PM70 °FSunny.10 mph53%30.04 "Hg10 mi
Weather by CustomWeather, © 2014

See weather overviewHow to use our weather pages